Location: Caltech
(34.1382°N, 118.1253°W)
Time: 07:34:22
(UTC-08:00)

Cosmos 44 Rocket - Visible Passes

Search period start: 16 January 2018 00:00
Search period end: 26 January 2018 00:00
Orbit: 652 x 738 km, 65.1° (Epoch: 15 January)

Date Brightness Start Highest point End Pass type
(mag) Time Alt. Az. Time Alt. Az. Time Alt. Az.
16 Jan 6.3 03:30:14 12° E 03:30:14 12° E 03:30:52 10° E visible
16 Jan 3.3 05:09:01 56° W 05:09:35 61° WSW 05:14:36 10° SSE visible
16 Jan 5.1 17:46:33 10° SE 17:48:32 13° ESE 17:50:13 11° E visible
16 Jan 3.9 19:24:56 10° SW 19:29:00 52° W 19:29:00 52° W visible
17 Jan 4.9 04:11:55 32° ESE 04:11:55 32° ESE 04:14:54 10° SE visible
17 Jan 4.9 05:50:43 16° WSW 05:51:04 17° WSW 05:54:12 10° SW visible
17 Jan 3.4 18:25:25 10° S 18:29:54 51° ESE 18:31:54 30° NE visible
17 Jan 5.9 20:08:43 10° W 20:10:41 16° WNW 20:10:41 16° WNW visible
18 Jan 4.5 04:53:41 30° SSW 04:53:41 30° SSW 04:56:34 10° S visible
18 Jan 4.3 19:07:19 10° SW 19:11:42 40° WNW 19:13:31 28° N visible
19 Jan 6.0 03:56:42 13° SE 03:56:42 13° SE 03:57:14 10° SE visible
19 Jan 3.1 18:07:25 10° SSW 18:12:03 71° ESE 18:16:17 13° NNE visible
19 Jan 5.9 19:51:56 10° WNW 19:54:03 13° NW 19:55:03 12° NNW visible
20 Jan 4.8 18:49:50 10° WSW 18:53:57 31° NW 18:57:44 12° N visible
21 Jan 3.3 17:49:32 10° SSW 17:54:12 84° WNW 17:58:57 10° NNE visible
22 Jan 5.3 18:32:29 10° WSW 18:36:14 24° NW 18:40:03 10° N visible
24 Jan 5.6 18:15:18 10° W 18:18:33 18° NW 18:21:50 10° N visible
